Location: Champignolles
(47.0543°N, 4.5663°E)
Time: 10:58:24
(UTC+00:00)

ISS - Pass Details

Date: 05 December 2021
Orbit: 413 x 422 km, 51.6° (Epoch: 19 January)

Event Time Altitude Azimuth Distance (km) Brightness Sun altitude
Rises 17:41:20 0° 294° (WNW) 2,382 0.9 -17.7°
Reaches altitude 10° 17:43:29 10° 289° (WNW) 1,513 -0.1 -18.0°
Maximum altitude 17:46:47 50° 213° (SSW) 546 -3.0 -18.6°
Enters shadow 17:48:11 29° 153° (SSE) 809 -2.5 -18.8°
